#timestamp,LO_Frequency,Hit,StdDev 
1583308815.6,286046996.0,N
1583308835.4,286046997.6,N
1583308855.2,286046995.3,N
1583308875.1,286046996.4,N
1583308876.0,286046996.4,N
1583308895.8,286046994.3,N
1583308915.7,286046994.0,N
1583308935.5,286046995.6,N
1583308955.3,286046998.9,N
1583308975.2,286046998.5,N
1583308995.0,286047001.2,N
1583308995.9,286047001.2,N
1583309015.7,286047001.0,N
1583309035.6,286046998.7,N
1583309055.4,286046996.8,N
1583309075.3,286046997.3,N
1583309095.1,286046999.9,N
1583309096.0,286046999.9,N
1583309115.8,286046998.6,N
1583309135.7,286047000.5,N
1583309155.5,286046998.1,N
1583309175.4,286046998.3,N
1583309195.2,286046997.2,N
1583309215.0,286046997.3,N
1583309215.9,286046997.3,N
1583309235.8,286046996.5,N
1583309255.6,286046999.0,N
1583309275.4,286046998.4,N
1583309295.3,286047001.2,N
1583309315.1,286046998.8,N
1583309335.9,286046997.0,N
1583309355.7,286046997.4,N
1583309375.5,286046998.1,N
1583309395.4,286047000.6,N
1583309415.2,286046998.5,N
1583309435.1,286047000.1,N
1583309436.0,286047000.1,N
1583309455.8,286047002.3,N
1583309475.6,286046998.5,N
1583309495.5,286047000.7,N
1583309515.3,286047001.5,N
1583309535.2,286047004.2,N
1583309555.0,286047000.5,N
1583309555.9,286047000.5,N
1583309575.7,286047001.0,N
1583309595.6,286047001.0,N
1583309615.4,286047004.1,N
1583309635.3,286047004.2,N
1583309655.1,286047002.3,N
1583309656.0,286047002.3,N
1583309675.8,286047002.4,N
1583309695.7,286047001.5,N
1583309715.5,286047003.7,N
1583309735.4,286047003.7,N
1583309755.2,286047003.3,N
1583309775.0,286047002.6,N
1583309775.9,286047002.6,N
1583309795.8,286047002.8,N
1583309815.6,286047002.8,N
1583309835.4,286047000.4,N
1583309855.3,286047000.2,N
1583309875.1,286047002.4,N
1583309895.9,286047002.8,N
1583309915.7,286047000.3,N
1583309935.5,286047001.7,N
1583309955.4,286047000.7,N
1583309975.2,286047001.0,N
1583309995.1,286047000.4,N
1583309996.0,286047000.4,N
1583310015.8,286046999.7,N
1583310035.6,286047002.8,N
1583310055.5,286046998.2,N
1583310075.3,286047002.7,N
1583310095.1,286047002.2,N
1583310115.9,286046999.0,N
1583310135.7,286047002.6,N
1583310155.6,286047004.4,N
1583310175.4,286047000.1,N
1583310195.2,286047001.1,N
1583310215.1,286047001.2,N
1583310216.0,286047001.2,N
1583310235.8,286047000.2,N
1583310255.7,286047004.2,N
1583310275.5,286047002.1,N
1583310295.3,286047001.3,N
1583310315.2,286047001.6,N
1583310335.0,286047000.2,N
1583310335.9,286047000.2,N
1583310355.7,286046999.8,N
1583310375.6,286047001.8,N
1583310395.4,286047004.1,N
1583310415.3,286047002.0,N
1583310435.1,286047002.7,N
1583310436.0,286047002.7,N
1583310455.8,286046999.9,N
1583310475.7,286047000.4,N
1583310495.5,286047002.5,N
1583310515.4,286046999.7,N
1583310535.2,286047000.6,N
1583310555.0,286047000.0,N
1583310555.9,286047000.0,N
1583310575.8,286047000.5,N
1583310595.6,286047000.4,N
1583310615.5,286046999.9,N
1583310635.3,286047004.0,N
1583310655.1,286047002.5,N
1583310675.9,286047002.8,N
1583310695.7,286047000.2,N
1583310715.5,286046998.6,N
1583310735.4,286046998.4,N
1583310755.2,286047000.7,N
1583310775.1,286046997.1,N
1583310776.0,286046997.1,N
1583310795.8,286046997.2,N
1583310815.6,286046996.9,N
1583310835.5,286046997.0,N
1583310855.3,286046997.5,N
1583310875.2,286046999.4,N
1583310895.9,286047000.7,N
1583310915.7,286046998.2,N
1583310935.6,286047002.0,N
1583310955.4,286047000.5,N
1583310975.2,286047000.9,N
1583310995.1,286046998.8,N
1583310996.0,286046998.8,N
1583311015.8,286047001.1,N
1583311035.7,286046998.1,N
1583311055.5,286047000.0,N
1583311075.3,286047002.4,N
1583311095.2,286047000.8,N
1583311115.0,286046998.7,N
1583311115.9,286046998.7,N
1583311135.8,286046996.6,N
1583311155.6,286046998.3,N
1583311175.4,286046998.9,N
1583311195.3,286046998.7,N
1583311215.1,286047000.8,N
1583311235.9,286047001.6,N
1583311255.7,286047004.4,N
1583311275.5,286047001.3,N
1583311295.4,286047001.6,N
1583311315.2,286047004.0,N
1583311335.1,286046998.5,N
1583311336.0,286046998.5,N
1583311355.8,286047000.3,N
1583311375.6,286047002.2,N
1583311395.5,286047000.8,N
1583311415.3,286047001.1,N
1583311435.2,286047001.0,N
1583311455.9,286047001.3,N
1583311475.7,286047000.2,N
1583311495.6,286047002.6,N
1583311515.4,286047001.5,N
1583311535.3,286047000.4,N
1583311555.1,286047000.7,N
1583311556.0,286047000.7,N
1583311575.8,286046999.7,N
1583311595.7,286047001.7,N
1583311615.5,286047001.3,N
1583311635.4,286047004.3,N
1583311655.2,286047004.0,N
1583311675.0,286047002.0,N
1583311675.9,286047002.0,N
1583311695.8,286047003.8,N
1583311715.6,286047003.7,N
1583311735.4,286047005.6,Y
1583311755.3,286047003.5,P
1583311775.1,286047003.9,P
1583311795.9,286047003.1,N
1583311815.7,286047002.6,N
1583311835.5,286047000.3,N
1583311855.4,286047001.2,N
1583311875.2,286046998.5,N
1583311895.1,286047001.4,N
1583311896.0,286047001.4,N
1583311915.8,286047001.5,N
1583311935.6,286047002.4,N
1583311955.5,286046999.9,N
1583311975.3,286047000.7,N
1583311995.1,286047001.6,N
1583312015.9,286047001.5,N
1583312035.7,286046999.8,N
1583312055.6,286047000.6,N
1583312075.4,286047000.5,N
1583312095.2,286047000.8,N
1583312115.1,286046998.1,N
1583312116.0,286046998.1,N
1583312135.8,286046999.9,N
1583312155.6,286046998.4,N
1583312175.5,286047001.6,N
1583312195.3,286046997.4,N
1583312215.2,286047000.1,N
1583312235.9,286047001.1,N
1583312255.7,286046999.7,N
1583312275.6,286047001.3,N
1583312295.4,286046999.7,N
1583312315.3,286047001.5,N
1583312335.1,286047002.8,N
1583312336.0,286047002.8,N
1583312355.8,286047002.8,N
1583312375.7,286047001.9,N
1583312395.5,286047001.4,N
